Content
SEND FEEDBACK

Daily
Averages
Monthly
Summary
United States of America

ONAWA, IOWA


Home > North America > United States > Iowa
Elevation: 1050 feet     Latitude: 42 01N     Longitude: 096 05W

WEATHER
 
SELECT A DAY
Number of Records: 198,441;   Date Range: 11/7/95 - 11/25/14
 
SHARE

PRINT THIS DATA

[ ← Previous Day ]
WEATHER ALMANAC - JANUARY 23, 2013
[ Next Day → ]
[ °C ]   °F
Weather ElementAverageHighLow
Temperature17.4 °F30 °F (2:54 pm)6.1 °F (11:54 pm)
Dewpoint7.8 °F16 °F (1:54 pm)-6 °F (11:54 pm)
Humidity66.8 %81 % (3:54 am)54 % (2:54 pm)
Barometer30.36 in30.60 in (11:54 pm)30.20 in (4:54 am)
Wind Speed13.4 mph21.9 mph (12:54 pm)
Wind Gust26.5 mph (3:54 pm)
Weather ElementAverage
Visibility9.8 mi
Wind DirectionSW (224.1 °)

Weather ElementTotal
Precipitation---
Heating Degree Days47 (Base 65)
Averaged from 22 records on January 23, 2013
WEATHER CONDITIONS BREAKOUT
WIND DIRECTION BREAKOUT
WEATHER BY HOUR - JANUARY 23, 2013
[ °C ]   °F
Local TimeTemperatureDewpointHumidityBarometerVisibilityWind DirectionWind SpeedGust SpeedPrecipitationEventsConditions
1:54 AM10.0 °F5.0 °F80 %30.25 in10.0 miSouth (180°)6.9 mphClear
2:54 AM10.0 °F5.0 °F80 %30.25 in10.0 miSouth (170°)6.9 mphClear
3:54 AM10.9 °F6.1 °F81 %30.22 in10.0 miSSE (160°)6.9 mphClear
4:54 AM10.9 °F6.1 °F81 %30.20 in10.0 miSSE (160°)3.5 mphClear
5:54 AM10.0 °F5.0 °F80 %30.23 in10.0 miCalmClear
6:54 AM10.9 °F6.1 °F81 %30.23 in10.0 miCalmClear
7:54 AM12.0 °F6.1 °F77 %30.25 in9.0 miWest (280°)3.5 mphClear
9:54 AM21.9 °F14.0 °F72 %30.30 in8.0 miNorth (350°)11.5 mphClear
10:54 AM25.0 °F14.0 °F63 %30.31 in9.0 miNorth (360°)15.0 mphClear
11:54 AM26.1 °F15.1 °F63 %30.32 in10.0 miNorth (360°)19.6 mphClear
12:54 PM28.0 °F15.1 °F58 %30.32 in9.0 miNorth (350°)21.9 mphClear
1:54 PM28.9 °F16.0 °F58 %30.32 in10.0 miNorth (360°)17.3 mphClear
2:54 PM30.0 °F15.1 °F54 %30.34 in10.0 miNorth (350°)20.7 mphClear
3:54 PM28.0 °F14.0 °F56 %30.36 in10.0 miNorth (360°)17.3 mph26.5 mphClear
4:54 PM24.1 °F12.0 °F60 %30.40 in10.0 miNorth (360°)18.4 mphClear
5:54 PM21.0 °F9.0 °F60 %30.44 in10.0 miNorth (360°)20.7 mphClear
6:54 PM19.0 °F7.0 °F59 %30.48 in10.0 miNorth (360°)18.4 mphClear
7:54 PM16.0 °F3.9 °F59 %30.51 in10.0 miNorth (360°)19.6 mph24.2 mphClear
8:54 PM14.0 °F3.9 °F64 %30.51 in10.0 miNorth (10°)17.3 mphClear
9:54 PM10.9 °F1.0 °F64 %30.54 in10.0 miNorth (10°)18.4 mphClear
10:54 PM8.1 °F-2.9 °F61 %30.58 in10.0 miNorth (10°)15.0 mphClear
11:54 PM6.1 °F-6.0 °F58 %30.60 in10.0 miNNE (20°)16.1 mphClear
Hourly data recorded from KTQE, located miles away from Onawa, Iowa







STORIES FROM OUR PARTNERS